Location: Elstree
(51.6403°N, 0.2969°W)
Time: 23:02:42
(UTC+00:00)

Terra - Pass Details

Date: 17 June 2021
Orbit: 701 x 703 km, 98.2° (Epoch: 27 July)

Event Time Altitude Azimuth Distance (km) Brightness Sun altitude
Exits shadow 21:49:02 11° 168° (SSE) 2,115 3.7 -9.5°
Maximum altitude 21:53:40 81° 255° (WSW) 720 1.9 -9.8°
Drops below altitude 10° 21:58:28 10° 344° (NNW) 2,184 5.8 -10.2°
Sets 22:00:44 0° 345° (NNW) 3,107 7.0 -10.4°
